星链-3553 (STARLINK-3553 )

导读

STARLINK-3553是美国SpaceX公司星链(Starlink)星座中的一颗低轨通信卫星,于北京时间2022年3月3日发射入轨。作为星链互联网星座的组成部分,它延续了星链量产卫星的设计,搭载Ku/Ka波段通信载荷与氪工质霍尔推进器,具备自主避撞能力,旨在为全球提供高速宽带互联网服务,工作于近地轨道,设计寿命约5至7年,退役后会主动离轨再入大气层烧毁。

Basic Information
目录编号:
51866
目录名称:
STARLINK-3553
国际标识:
2022-022Q
轨道中心:
EARTH
卫星名称:
星链-3553
卫星全名:
星链-3553 (STARLINK-3553 )
卫星状态:
在轨 (已飞行1646 天)
发射日期:
2022-03-03 UTC
国别 :
美国 (US)
星等 :
--
Orbit Information
数据来源 国际轨道数据
星历时间: 2026-09-02T15:53:23+0800
1天前
查看轨道信息
半长轴: 6843.375km
偏心率: 0.0001144
轨道倾角: 53.160°
近地点辐角 82.510°
升交点赤经 288.839°
平近点角 277.603°
近地点: 464.455km
远地点: 466.021km
周期: 93.900分钟
每日圈数: 15.335476
Detailed Information
固有亮度:
5
最大亮度:
2.5
卫星平台:
Starlink v1.5
覆盖范围:
全球
运营商:
太空探索技术公司
运营商所在国:
美国
制造商(研发单位):
太空探索技术公司
制造商所在国:
美国
使用方式:
暂无
Satellite Introduction
星链(Starlink)计划是由太空探索技术公司(SpaceX)提出的一个巨型低轨卫星互联网星座项目,计划在2019年至2024年间在太空搭建由约1.2万颗卫星组成的“星链”网络,其中1584颗将部署在地球上空550千米处的近地轨道,并从2020年开始工作。该卫星仍在工作。
2D Orbit Map
3D Orbit Map
Orbit Altitude Analysis Chart
Orbit Inclination Analysis Chart
Orbit Comprehensive Analysis Chart
View Comprehensive Chart
Conjunction Data List
Event ID Objects TCA Miss Dist (km) Collision Risk Probability Collision Risk Index (CRI) Action
CDM_260905-040105-186606-041221
2026-09-05T
04:01:51+0000
2.161 km
极远距离
2.060511E-6 低风险 0.41
CDM_260904-231405-186606-043521
2026-09-04T
23:14:59+0000
2.553 km
极远距离
1.51103E-6 低风险 0.39
CDM_260831-085105-186606-873721
2026-08-31T
08:51:48+0000
2.874 km
极远距离
1.407085E-6 低风险 0.38
CDM_260903-195805-186606-620421
2026-09-03T
19:58:52+0000
2.702 km
极远距离
1.345631E-6 低风险 0.38
CDM_260903-154105-186605-343221
2026-09-03T
15:41:47+0000
2.433 km
极远距离
1.34021E-6 低风险 0.38
CDM_260903-114205-186606-811721
2026-09-03T
11:42:36+0000
2.587 km
极远距离
1.335118E-6 低风险 0.38
CDM_260830-122705-186606-933821
2026-08-30T
12:27:40+0000
2.314 km
极远距离
1.275595E-6 低风险 0.37
CDM_260905-035505-186605-237821
2026-09-05T
03:55:59+0000
2.877 km
极远距离
1.264548E-6 低风险 0.37
CDM_260903-132905-186606-921821
2026-09-03T
13:29:19+0000
2.397 km
极远距离
1.137318E-6 低风险 0.36
CDM_260903-075305-186606-466921
2026-09-03T
07:53:02+0000
2.818 km
极远距离
1.087174E-6 低风险 0.36